TimePDT,TemperatureF,Dew PointF,Humidity,Sea Level PressureIn,VisibilityMPH,Wind Direction,Wind SpeedMPH,Gust SpeedMPH,PrecipitationIn,Events,Conditions,WindDirDegrees,DateUTC
12:53 AM,57.9,52.0,81,29.95,10.0,ESE,4.6,-,N/A,,Mostly Cloudy,120,2013-09-18 07:53:00
1:53 AM,59.0,53.1,81,29.97,10.0,South,4.6,-,N/A,,Overcast,170,2013-09-18 08:53:00
2:53 AM,59.0,52.0,78,29.98,10.0,SSE,4.6,-,N/A,,Overcast,160,2013-09-18 09:53:00
3:53 AM,59.0,52.0,78,29.99,10.0,South,6.9,-,N/A,,Overcast,180,2013-09-18 10:53:00
4:53 AM,59.0,52.0,78,30.00,10.0,South,5.8,-,N/A,,Overcast,170,2013-09-18 11:53:00
5:00 AM,59.0,51.8,77,30.00,10.0,SSE,6.9,-,N/A,,Overcast,160,2013-09-18 12:00:00
5:53 AM,59.0,51.1,75,30.01,10.0,South,3.5,-,N/A,,Overcast,170,2013-09-18 12:53:00
6:53 AM,57.9,51.1,78,30.01,10.0,South,6.9,-,N/A,,Mostly Cloudy,170,2013-09-18 13:53:00
7:53 AM,59.0,51.1,75,30.04,10.0,South,4.6,-,N/A,,Scattered Clouds,170,2013-09-18 14:53:00
8:53 AM,59.0,50.0,72,30.05,10.0,SSE,6.9,-,N/A,,Mostly Cloudy,160,2013-09-18 15:53:00
9:53 AM,61.0,50.0,67,30.06,10.0,Variable,4.6,-,N/A,,Mostly Cloudy,0,2013-09-18 16:53:00
10:15 AM,62.6,51.8,68,30.07,10.0,SSE,4.6,-,N/A,,Scattered Clouds,160,2013-09-18 17:15:00
10:53 AM,63.0,51.1,65,30.07,10.0,South,5.8,-,N/A,,Scattered Clouds,170,2013-09-18 17:53:00
11:53 AM,64.9,50.0,58,30.07,10.0,Variable,5.8,-,N/A,,Scattered Clouds,0,2013-09-18 18:53:00
12:53 PM,66.0,51.1,59,30.08,10.0,SW,10.4,-,N/A,,Scattered Clouds,220,2013-09-18 19:53:00
1:53 PM,66.9,48.9,52,30.08,10.0,WSW,8.1,-,N/A,,Scattered Clouds,240,2013-09-18 20:53:00
2:53 PM,68.0,48.0,49,30.07,10.0,SW,3.5,-,N/A,,Scattered Clouds,220,2013-09-18 21:53:00
3:53 PM,69.1,48.0,47,30.06,10.0,Variable,4.6,-,N/A,,Scattered Clouds,0,2013-09-18 22:53:00
4:53 PM,71.1,46.9,42,30.06,10.0,NNE,4.6,-,N/A,,Scattered Clouds,30,2013-09-18 23:53:00
5:53 PM,69.1,48.9,49,30.06,10.0,NE,4.6,-,N/A,,Scattered Clouds,40,2013-09-19 00:53:00
6:53 PM,68.0,48.0,49,30.06,10.0,Calm,Calm,-,N/A,,Scattered Clouds,0,2013-09-19 01:53:00
7:53 PM,66.9,48.0,51,30.06,10.0,NE,4.6,-,N/A,,Mostly Cloudy,50,2013-09-19 02:53:00
8:53 PM,64.9,48.0,54,30.06,10.0,Calm,Calm,-,N/A,,Scattered Clouds,0,2013-09-19 03:53:00
9:53 PM,62.1,48.0,60,30.06,10.0,Calm,Calm,-,N/A,,Clear,0,2013-09-19 04:53:00
10:53 PM,59.0,48.0,67,30.06,10.0,SE,3.5,-,N/A,,Clear,140,2013-09-19 05:53:00
11:53 PM,59.0,48.9,69,30.05,10.0,Calm,Calm,-,N/A,,Clear,0,2013-09-19 06:53:00